Regional Weather Roundup
Issued by NWS

Home | Current Version | Previous Version | Text Only | Print | Product List | Glossary On
Versions: 1 2 3 4 5 6 7 8 9 10 11 12 13 14 15 16 17 18 19 20 21 22 23 24 25 26 27 28 29 30 31 32 33 34 35 36 37 38 39 40 41 42 43 44 45 46 47 48 49 50
000
ASUS43 KDMX 231507
RWRIA

WEATHER ROUNDUP FOR IOWA
NATIONAL WEATHER SERVICE DES MOINES IA
1000 AM CDT SAT AUG 23 2014

NOTE: "FAIR" INDICATES FEW OR NO CLOUDS BELOW 12,000 FEET WITH NO
SIGNIFICANT WEATHER AND/OR OBSTRUCTIONS TO VISIBILITY.

* - THESE STATIONS ARE NOT NWS STATIONS...THUS NOT UNDER NWS
QUALITY CONTROL.  THEY ALSO DO NOT REPORT WEATHER SUCH
AS PRECIPITATION OR FOG.

IAZ001>003-012>014-020>022-031>034-043>046-231600-
   NORTHWEST IOWA

CITY           SKY/WX    TMP DP  RH WIND       PRES   REMARKS
CARROLL *      PTSUNNY   72  70  94 E8        29.90F
CHEROKEE *     CLOUDY    73  72  94 E10       29.92R
DENISON *      CLOUDY    72  72 100 E9        29.88S
LE MARS *      PTSUNNY   73  70  88 E6        29.91S
ORANGE CITY *  MOSUNNY   75  70  83 E7        29.92S
SHELDON *      PTSUNNY   72  70  94 E15G21    29.92R
SIOUX CITY     CLOUDY    74  69  85 E7        29.90S
SPENCER        CLOUDY    73  69  87 E13       29.93R
STORM LAKE *   CLOUDY    72  72 100 E10G17    29.93F
$$

IAZ055>058-069>071-079>083-090>094-231600-
   SOUTHWEST IOWA

CITY           SKY/WX    TMP DP  RH WIND       PRES   REMARKS
ATLANTIC *     SUNNY     73  70  88 SE10G17   29.87S
AUDUBON *      CLOUDY    75  73  94 E6        29.91R
CLARINDA *     SUNNY     77  73  88 VRB6      29.91S
COUNCIL BLFS * SUNNY     75  73  94 SE13G20   29.89R
CRESTON *      SUNNY     72  72 100 E10       29.92F
HARLAN  *      CLOUDY    75  73  94 E7        29.92R
LAMONI         CLOUDY    73  71  93 E7        29.92F
RED OAK *      SUNNY     75  72  88 SE9G15    29.89S
SHENANDOAH *   SUNNY     77  73  88 SE9       29.88F
$$

IAZ047>049-059>061-072>074-084-231600-
   CENTRAL IOWA

CITY           SKY/WX    TMP DP  RH WIND       PRES   REMARKS
AMES           LGT RAIN  72  72 100 CALM      29.96R
ANKENY *       PTSUNNY   73  72  94 NE5       29.93S
CHARITON *     SUNNY     73  70  88 E7        29.91F
DES MOINES     CLOUDY    74  71  91 SE8       29.92R
GRINNELL*      LGT RAIN  72  70  94 CALM      29.93F
KNOXVILLE *    CLOUDY    72  70  94 CALM      29.92S
MARSHALLTOWN   LGT RAIN  72  70  93 SE6       29.91F
PELLA *        CLOUDY    72  72 100 CALM      29.94S
PERRY *        LGT RAIN  72  70  94 E7        29.92F
$$

IAZ004>006-015-016-023>025-035-036-231600-
   NORTH CENTRAL IOWA

CITY           SKY/WX    TMP DP  RH WIND       PRES   REMARKS
ALGONA *       SUNNY     70  70 100 E8        29.94F
CLARION *      CLOUDY    72  72 100 E5        29.94R
ESTHERVILLE    CLOUDY    70  69  97 E13       29.94R
FORT DODGE *   CLOUDY    72  70  94 S6        29.95F
MASON CITY     LGT RAIN  70  69  97 NE9       29.95F
FOREST CITY *  LGT RAIN  68  68 100 N8        29.94F
IOWA FALLS *   LGT RAIN  72  70  94 E8        29.93F
$$

IAZ007>011-017>019-026>030-037>042-050>054-066-231600-
   NORTHEAST IOWA

CITY           SKY/WX    TMP DP  RH WIND       PRES   REMARKS
CEDAR RAPIDS   LGT RAIN  71  71 100 NW8       29.96F FOG
CHARLES CITY * RAIN      70  70 100 NE6       29.99F
CLINTON *      CLOUDY    75  73  94 S3        30.01R
DECORAH *      FOG       72  72 100 CALM      29.99R VSB 0
DUBUQUE        CLOUDY    75  74  96 E5        29.99R FOG
MONTICELLO *   LGT RAIN  73  73 100 W14G22    29.97F
OELWEIN *      LGT RAIN  73  72  94 NW9       29.99S
WATERLOO       LGT RAIN  73  71  93 NE5       29.92F
$$

IAZ064-065-067-068-078-231600-
   EAST CENTRAL IOWA

CITY           SKY/WX    TMP DP  RH WIND       PRES   REMARKS
DAVENPORT      TSTM      71  69  93 S8G17     30.03R VSB 1
IOWA CITY      TSTM      71  71 100 W3        30.00R
MT. PLEASANT * CLOUDY    72  70  94 NE7       29.96F
MUSCATINE *    LGT RAIN  72  70  94 NE5       29.99S
QUAD CITIES    TSTM      72  69  90 NW8       30.01R FOG
$$

IAZ062-063-075>077-085>089-095>099-231600-
   SOUTHEAST IOWA

CITY           SKY/WX    TMP DP  RH WIND       PRES   REMARKS
BURLINGTON       N/A     73  73 100 MISG      29.96F
FAIRFIELD *    CLOUDY    70  70 100 CALM      29.95F
FORT MADISON * SUNNY     72  72 100 CALM      29.97F
KEOKUK *       SUNNY     75  70  83 VRB7      29.96F
OSKALOOSA *      N/A     70  70 100 SE5       29.94F
CENTERVILLE *  MOSUNNY   72  72 100 E5        29.93F
OTTUMWA        LGT RAIN  70  69  97 CALM      29.94R
WASHINGTON *   LGT RAIN  72  72 100 NE3       29.95F
$$

ABBREVIATIONS USED IN REMARKS
   TC - TEMPERATURES IN CELSIUS
  WCI - WIND CHILL INDEX
   HX - HEAT INDEX
  VSB - VISIBILITY
$$




USA.gov is the U.S. government's official web portal to all federal, state and local government web resources and services.